Regional Weather Roundup
Issued by NWS

Home | Current Version | Previous Version | Graphics & Text | Print | Product List | Glossary Off
Versions: 1 2 3 4 5 6 7 8 9 10 11 12 13 14 15 16 17 18 19 20 21 22 23 24 25 26 27 28 29 30 31 32 33 34 35 36 37 38 39 40 41 42 43 44 45 46 47 48 49 50

000
ASUS43 KMKX 281811
RWRWI

WISCONSIN REGIONAL WEATHER ROUNDUP
NATIONAL WEATHER SERVICE MILWAUKEE/SULLIVAN WI
100 PM CDT THU JUL 28 2016

NOTE: "FAIR" INDICATES FEW OR NO CLOUDS BELOW 12,000 FEET WITH NO
SIGNIFICANT WEATHER AND/OR OBSTRUCTIONS TO VISIBILITY.

WIZ001-002-006>008-014>016-023>028-281900-
NORTHWEST WISCONSIN

CITY           SKY/WX    TMP DP  RH WIND       PRES   REMARKS
SUPERIOR ARPT  CLOUDY    66  58  75 E9G18     30.10S
6HR MIN TEMP:  61; 6HR MAX TEMP:  68;

ASHLAND        SUNNY     70  60  70 N16       30.09S
6HR MIN TEMP:  63; 6HR MAX TEMP:  71;

HAYWARD        CLOUDY    73  55  53 NE10      30.07S
6HR MIN TEMP:  62; 6HR MAX TEMP:  73;

SIREN          CLOUDY    72  57  60 NE10      30.07S
CUMBERLAND     CLOUDY    70  55  60 N12       30.06S
RICE LAKE      CLOUDY    71  58  63 N9        30.06S
6HR MIN TEMP:  65; 6HR MAX TEMP:  71;

CHETEK         CLOUDY    71  60  68 NE8       30.04S
6HR MIN TEMP:  65; 6HR MAX TEMP:  71;

LADYSMITH      CLOUDY    71  59  65 NE7       30.05F
6HR MIN TEMP:  65; 6HR MAX TEMP:  72;

EAU CLAIRE     LGT RAIN  66  65  96 NE8       30.01S FOG
6HR MIN TEMP:  66; 6HR MAX TEMP:  68; 6HR PCP:  0.01;

MENOMONIE      CLOUDY    68  67  99 N5        30.02F
6HR MIN TEMP:  66; 6HR MAX TEMP:  68;

NEW RICHMOND   CLOUDY    70  58  65 N10       30.04S
6HR MIN TEMP:  64; 6HR MAX TEMP:  71;

OSCEOLA        CLOUDY    69  59  69 NE12G17   30.07S
6HR MIN TEMP:  64; 6HR MAX TEMP:  70;

$$

WIZ003>005-009-010-017-018-281900-
NORTH CENTRAL WISCONSIN

CITY           SKY/WX    TMP DP  RH WIND       PRES   REMARKS
MANITOWISH WTR CLOUDY    72  57  60 E7        30.07S
6HR MIN TEMP:  60; 6HR MAX TEMP:  72;

ARBOR VITAE    CLOUDY    72  57  60 E6        30.06S
6HR MIN TEMP:  62; 6HR MAX TEMP:  72;

WOODRUFF       CLOUDY    72  57  60 E6        30.06S
6HR MIN TEMP:  62; 6HR MAX TEMP:  72;

RHINELANDER    CLOUDY    73  56  54 VRB7      30.05S
6HR MIN TEMP:  60; 6HR MAX TEMP:  73;

EAGLE RIVER    PTSUNNY   71  53  52 NE8       30.06R
6HR MIN TEMP:  59; 6HR MAX TEMP:  73;

LAND O LAKES   MOSUNNY   73  53  48 E3        30.07S
6HR MIN TEMP:  60; 6HR MAX TEMP:  73; 6HR PCP:  0.03;

PHILLIPS       CLOUDY    70  56  60 NE8       30.05S
6HR MIN TEMP:  61; 6HR MAX TEMP:  71;

TOMAHAWK       CLOUDY    70  58  66 CALM      30.05F
6HR MIN TEMP:  59; 6HR MAX TEMP:  70;

MEDFORD        DRIZZLE   60  60 100 NE9       30.04R
6HR MIN TEMP:  60; 6HR MAX TEMP:  62; 6HR PCP:  0.04;

MERRILL        CLOUDY    65  59  81 E5        30.05S
6HR MIN TEMP:  59; 6HR MAX TEMP:  65; 6HR PCP:  0.07;

$$

WIZ029-030-035-036-043>047-281900-
CENTRAL WISCONSIN

CITY           SKY/WX    TMP DP  RH WIND       PRES   REMARKS
WAUSAU         CLOUDY    60  58  92 NE6       30.02S
6HR MIN TEMP:  60; 6HR MAX TEMP:  62; 6HR PCP:  0.14;

MOSINEE        CLOUDY    64  63  94 NE14      30.03R
MARSHFIELD     CLOUDY    64  60  87 NE9       30.01S
6HR MIN TEMP:  62; 6HR MAX TEMP:  64; 6HR PCP:  0.01;

STEVENS POINT  CLOUDY    64  61  91 NE9       30.01F
6HR MIN TEMP:  59; 6HR MAX TEMP:  64; 6HR PCP:  0.10;

WAUPACA        CLOUDY    69  65  85 NE7       30.00R
6HR MIN TEMP:  65; 6HR MAX TEMP:  71;

WAUTOMA        CLOUDY    69  62  78 NE9       29.99R
6HR MIN TEMP:  64; 6HR MAX TEMP:  71;

WISC RAPIDS    LGT RAIN  66  60  81 E7        30.00F
6HR MIN TEMP:  64; 6HR MAX TEMP:  66; 6HR PCP: TRACE;

CAMP DOUGLAS   NOT AVBL
$$

WIZ011>013-019>022-031-037>040-048>050-281900-
NORTHEAST WISCONSIN

CITY           SKY/WX    TMP DP  RH WIND       PRES   REMARKS
ANTIGO         CLOUDY    63  58  83 CALM      30.05S
6HR MIN TEMP:  58; 6HR MAX TEMP:  63; 6HR PCP:  0.03;

SHAWANO        RAIN      64  62  90 NE9       30.02S
6HR MIN TEMP:  62; 6HR MAX TEMP:  65; 6HR PCP:  0.15;

OCONTO         CLOUDY    65  65 100 N3        30.01S
STURGEON BAY   CLOUDY    67  61  81 NE8       30.01S
6HR MIN TEMP:  62; 6HR MAX TEMP:  67; 6HR PCP: TRACE;

GREEN BAY      CLOUDY    68  65  90 N14       30.00S
6HR MIN TEMP:  64; 6HR MAX TEMP:  69; 6HR PCP: TRACE;

MANITOWOC      CLOUDY    70  61  73 NE8G17    29.98S
6HR MIN TEMP:  64; 6HR MAX TEMP:  71;

APPLETON       PTSUNNY   72  61  68 NE13      29.97F
CLINTONVILLE   CLOUDY    64  61  88 NE5       30.01S
OSHKOSH        CLOUDY    71  62  73 NE13      29.97R
6HR MIN TEMP:  66; 6HR MAX TEMP:  72; 6HR PCP:  0.04;

$$

WIZ032>034-041-042-053>061-281900-
SOUTHWEST WISCONSIN

CITY           SKY/WX    TMP DP  RH WIND       PRES   REMARKS
LA CROSSE      LGT RAIN  68  65  90 N9        29.95R FOG
6HR MIN TEMP:  68; 6HR MAX TEMP:  70; 6HR PCP:  0.05;

SPARTA         CLOUDY    67  64  90 NE7       29.97R
6HR MIN TEMP:  65; 6HR MAX TEMP:  68;

VIROQUA        CLOUDY    69  69 100 E5        29.95S VSB 1
6HR MIN TEMP:  67; 6HR MAX TEMP:  70; 6HR PCP:  0.50;

BOSCOBEL       CLOUDY    78  69  73 NE5       29.91S HX  80
6HR MIN TEMP:  69; 6HR MAX TEMP:  78;

PRAIRIE DU CHI CLOUDY    73  67  79 NW6       29.92S
6HR MIN TEMP:  68; 6HR MAX TEMP:  73;

PLATTEVILLE    PTSUNNY   81  72  73 SW3       29.91S HX  86
6HR MIN TEMP:  69; 6HR MAX TEMP:  81;

$$

WIZ056-057-062-063-064-067-068-281900-
SOUTH CENTRAL WISCONSIN

CITY           SKY/WX    TMP DP  RH WIND       PRES   REMARKS
REEDSBURG      CLOUDY    71  67  86 NE10      29.93F
6HR MIN TEMP:  68; 6HR MAX TEMP:  72;

BARABOO/DELLS  CLOUDY    72  65  79 E9        29.95S
6HR MIN TEMP:  66; 6HR MAX TEMP:  72;

LONE ROCK      CLOUDY    75  69  81 E9        29.91F
6HR MIN TEMP:  69; 6HR MAX TEMP:  76;

MINERAL POINT  CLOUDY    79  72  78 CALM      29.92F HX  82
MADISON        CLOUDY    74  68  81 NE10      29.93R
6HR MIN TEMP:  69; 6HR MAX TEMP:  76;

MIDDLETON      CLOUDY    75  69  81 CALM      29.93S
6HR MIN TEMP:  70; 6HR MAX TEMP:  76;

WATERTOWN      CLOUDY    75  71  86 NE8G16    29.92S
6HR MIN TEMP:  67; 6HR MAX TEMP:  76;

MONROE         CLOUDY    75  70  83 NE7       29.90S
JANESVILLE     TSTM      72  70  94 N22G36    29.86F FOG
$$

WIZ051-052-058>065-066-070>072-281900-
SOUTHEAST WISCONSIN

CITY           SKY/WX    TMP DP  RH WIND       PRES   REMARKS
MILWAUKEE      PTSUNNY   77  67  71 NE14      29.92F
6HR MIN TEMP:  69; 6HR MAX TEMP:  78;

WAUKESHA       CLOUDY    73  66  78 NE12      29.94F
MILWAUKEE/TIMM CLOUDY    73  63  68 NE12      29.94F
RACINE         SUNNY     79  69  71 N12       29.92F HX  81
6HR MIN TEMP:  69; 6HR MAX TEMP:  79;

BURLINGTON     PTSUNNY   80  69  69 NE9       29.89F HX  83
6HR MIN TEMP:  68; 6HR MAX TEMP:  82;

KENOSHA        SUNNY     82  68  62 E8        29.90F HX  85
6HR MIN TEMP:  70; 6HR MAX TEMP:  83;

FOND DU LAC    CLOUDY    73  62  68 NE12      29.96S
6HR MIN TEMP:  67; 6HR MAX TEMP:  74; 6HR PCP:  0.01;

SHEBOYGAN      CLOUDY    69  61  75 NE21      29.96F
6HR MIN TEMP:  66; 6HR MAX TEMP:  72;

WEST BEND      CLOUDY    72  63  73 E9        29.95S
JUNEAU         CLOUDY    73  65  78 NE9       29.95S
6HR MIN TEMP:  66; 6HR MAX TEMP:  73;

$$

LSZ147-162-281900-
LAKE SUPERIOR

STATION/POSITION TIME  TEMP    WIND        PRES    WAVE
                       AIR SEA DIR/SP/G            HT/PER
                 (UTC) (F)     (DEG/KT/KT) (MB)    (FT/S)
W MID LAKE BUOY  1750   61 60   60/ 12/ 14 1019.1R   2/ 4
DEVILS ISLAND    1800   62      50/ 17/ 18 1019.7R
PORT WING        1640   62      30/ 12/ 14 1019.3R
SAXON HARBOR     1700   67      30/ 10/ 12 1018.3
$$

LMZ867-665-643>646-281900-
LAKE MICHIGAN

STATION/POSITION TIME  TEMP    WIND        PRES    WAVE
                       AIR SEA DIR/SP/G            HT/PER
                 (UTC) (F)     (DEG/KT/KT) (MB)    (FT/S)
CHAMBERS ISLAND  1700   68      10/ 10/ 11 1016.3S
N MIDC1F1C2F2C3F3C4F4C5F5C6F6C7F7C8M1C9M2Ca!



USA.gov is the U.S. government's official web portal to all federal, state and local government web resources and services.